Location: Arcusa
(42.3167°N, 0.0833°W)
Time: 16:43:07
(UTC+00:00)

Orbus 7S? - Pass Details

Date: 25 January 2020
Orbit: 324 x 6445 km, 57.0° (Epoch: 20 February)

Event Time Altitude Azimuth Distance (km) Brightness Sun altitude
Exits shadow 02:36:34 -5° 68° (ENE) 3,362 8.0 -51.8°
Enters shadow 04:50:32 -47° 302° (WNW) 11,530 9.9 -27.7°
Maximum altitude 05:17:15 57° 44° (NE) 712 4.0 -22.8°
